Preview of NWS' New Version of Forecast
This preview is not operational and should not be used for support decisions.

Regional Weather Roundup (RWR)

Issued by National Weather Service (NWS)

                            
000
ASUS46 KPQR 241210
RWROR 

OREGON REGIONAL WEATHER ROUNDUP
NATIONAL WEATHER SERVICE PORTLAND OR
500 AM PDT MON JUN 24 2019

NOTE: "FAIR" INDICATES FEW OR NO CLOUDS BELOW 12,000 FEET WITH
NO SIGNIFICANT WEATHER AND/OR OBSTRUCTIONS TO VISIBILITY.

ORZ001>013-241300-
NORTHWEST OREGON

  
CITY           SKY/WX    TMP DP  RH WIND       PRES   REMARKS
ASTORIA        CLOUDY    54  51  90 CALM      30.11F                  
6HR MIN TEMP:  53; 6HR MAX TEMP:  56; 6HR PCP: TRACE;                

TILLAMOOK      MOCLDY    45  43  93 CALM      30.14S                  
NEWPORT        CLOUDY    48  46  93 CALM      30.14S                  
PORTLAND       PTCLDY    52  46  80 NW5       30.11F                  
6HR MIN TEMP:  52; 6HR MAX TEMP:  58;                                

VANCOUVER WA   CLEAR     52  46  80 NW3       30.11F                  
6HR MIN TEMP:  52; 6HR MAX TEMP:  57;                                

SCAPPOOSE      CLEAR     44  42  93 CALM      30.11F                  
6HR MIN TEMP:  42; 6HR MAX TEMP:  56;                                

HILLSBORO      CLEAR     43  41  93 CALM      30.11F                  
6HR MIN TEMP:  43; 6HR MAX TEMP:  55;                                

AURORA         CLEAR     51  44  77 CALM      30.12F                  
6HR MIN TEMP:  51; 6HR MAX TEMP:  58;                                

MCMINNVILLE    CLEAR     49  44  83 CALM      30.11F                  
6HR MIN TEMP:  49; 6HR MAX TEMP:  55;                                

SALEM          CLOUDY    54  45  71 N8        30.10F                  
6HR MIN TEMP:  54; 6HR MAX TEMP:  56;                                

CORVALLIS      CLOUDY    50  47  89 NW6       30.11F                  
EUGENE         CLEAR     48  44  86 N8        30.10F                  
6HR MIN TEMP:  48; 6HR MAX TEMP:  58;                                

$$

ORZ021-028-241300-
SOUTHWEST OREGON

  
CITY           SKY/WX    TMP DP  RH WIND       PRES   REMARKS
NORTH BEND     CLEAR     48  48 100 SE3       30.11F                  
6HR MIN TEMP:  48; 6HR MAX TEMP:  54;                                

BROOKINGS      PTCLDY    49  47  93 CALM      30.02F                  
ROSEBURG       CLEAR     56  48  74 N3        30.08F                  
6HR MIN TEMP:  54; 6HR MAX TEMP:  65;                                

SEXTON SUMMIT  CLEAR     47  44  90 N13       30.07S                  
6HR MIN TEMP:  47; 6HR MAX TEMP:  53;                                

GRANTS PASS    FAIR      55  45  67 CALM      30.06S                  
MEDFORD        CLEAR     54  43  66 CALM      30.02S                  
6HR MIN TEMP:  54; 6HR MAX TEMP:  69;                                

$$

ORZ014>016-041-241300-
COLUMBIA GORGE

  
CITY           SKY/WX    TMP DP  RH WIND       PRES   REMARKS
TROUTDALE      CLEAR     51  46  83 CALM      30.11F                  
6HR MIN TEMP:  50; 6HR MAX TEMP:  58;                                

HOOD RIVER     PTCLDY    52  45  76 NW14G22   30.05F                  
THE DALLES     CLEAR     55  44  66 W10       30.03F                  
6HR MIN TEMP:  54; 6HR MAX TEMP:  62;                                

$$

ORZ029>031-041-044-049-050-061>064-502-503-505>511-241300-
EASTERN OREGON

  
CITY           SKY/WX    TMP DP  RH WIND       PRES   REMARKS
MADRAS         NOT AVBL                                               
REDMOND        CLEAR     42  36  79 S6        30.05S                  
6HR MIN TEMP:  39; 6HR MAX TEMP:  56;                                

BEND           CLEAR     43  39  87 S3        30.05S                  
PRINEVILLE     CLEAR     36  34  93 CALM      30.05S                  
KLAMATH FALLS  PTCLDY    45  38  76 CALM      30.05F                  
6HR MIN TEMP:  40; 6HR MAX TEMP:  57;                                

LAKEVIEW       CLEAR     37  33  85 NW5       30.08F                  
HERMISTON      CLEAR     55  44  66 SW10      30.00R                  
6HR MIN TEMP:  55; 6HR MAX TEMP:  62;                                

PENDLETON      CLEAR     49  40  71 S6        30.02S                  
6HR MIN TEMP:  48; 6HR MAX TEMP:  59;                                

JOHN DAY       CLEAR     46  38  76 CALM      30.06S                  
MEACHAM        MOCLDY    35  33  92 CALM      30.04F                  
6HR MIN TEMP:  35; 6HR MAX TEMP:  50;                                

LA GRANDE      CLEAR     45  38  76 W10       30.04S                  
6HR MIN TEMP:  45; 6HR MAX TEMP:  56;                                

BAKER CITY     CLEAR     37  34  89 CALM      30.03S                  
6HR MIN TEMP:  37; 6HR MAX TEMP:  53;                                

BURNS          CLEAR     38  32  79 W3        30.06F                  
6HR MIN TEMP:  37; 6HR MAX TEMP:  57;                                

ROME             N/A     44  33  65 SE9       30.03S                  
6HR MIN TEMP:  44; 6HR MAX TEMP:  63;                                

ONTARIO        CLEAR     54  38  54 W9        30.00S                  
6HR MIN TEMP:  52; 6HR MAX TEMP:  65;                                

$$